This demonstration page uses our WeatherBlox Daily Observations layout. Learn more.

Left ArrowRight Arrow

Hourly Observations for May 9, 2015

Temp ( °F °C ) Dew Point ( °F °C ) Humidity (%) Winds ( mph kmh ) Pressure ( in mb ) Visibility ( mi km ) Precip ( " mm )
12:53 am 00:53 Cloudy 53 11.7 49 9.4 86 86 E 13 20 30.03 1017 10 16 0.00 0.00
1:18 am 01:18 Cloudy 53 11.7 49 9.4 86 86 E 9 15 30.06 1018 9 14 0.00 0.00
1:53 am 01:53 Cloudy 53 11.7 49 9.4 86 86 E 7 11 30.05 1018 9 14 0.00 0.00
2:53 am 02:53 Cloudy 52 11.1 49 9.4 89 89 ENE 6 9 30.04 1017 8 13 0.00 0.00
3:12 am 03:12 Cloudy 52 11 48 9 88 88 ENE 7 11 30.06 1018 8 13 0.00 0.00
3:53 am 03:53 Cloudy 52 11.1 49 9.4 89 89 ENE 9 15 30.04 1017 8 13 0.00 0.00
4:27 am 04:27 Cloudy 52 11.1 49 9.4 89 89 ENE 8 13 30.06 1018 7 11 0.00 0.00
4:53 am 04:53 Cloudy 52 11.1 49 9.4 89 89 ENE 8 13 30.05 1018 8 13 0.00 0.00
5:48 am 05:48 Cloudy with Rain 52 11 50 10 94 94 ENE 12 19 30.06 1018 2 3 0.00 0.00
5:53 am 05:53 Cloudy with Light Rain 51 10.6 50 10 96 96 ENE 12 19 30.05 1018 3 5 0.08 2.03
6:21 am 06:21 Cloudy 51 10.6 49 9.4 92 92 ENE 14 22 30.03 1017 7 11 0.00 0.03
6:53 am 06:53 Mostly Cloudy with Mist and Fog 50 10 48 8.9 93 93 ENE 12 19 30.03 1017 5 8 0.00 0.03
7:53 am 07:53 Cloudy with Mist and Fog 50 10 48 8.9 93 93 ENE 14 22 30.01 1016 5 8 0.00 0.00
8:53 am 08:53 Cloudy with Mist and Fog 50 10 48 8.9 93 93 E 16 26 30.00 1016 5 8 0.00 0.00
9:10 am 09:10 Cloudy with Mist and Fog 52 11 48 9 88 88 ENE 16 26 30.00 1016 6 10 0.00 0.00
9:53 am 09:53 Cloudy with Haze 53 11.7 48 8.9 83 83 ENE 15 24 30.00 1016 6 10 0.00 0.00
10:53 am 10:53 Cloudy 53 11.7 48 8.9 83 83 E 14 22 30.02 1017 7 11 0.00 0.00
11:53 am 11:53 Cloudy with Light Rain 52 11.1 48 8.9 86 86 E 13 20 30.02 1017 3 4 0.01 0.25
12:01 pm 12:01 Cloudy with Light Rain 52 11.1 49 9.4 89 89 E 10 17 30.03 1017 2 3 0.01 0.25
12:09 pm 12:09 Cloudy with Light Rain 52 11.1 49 9.4 89 89 E 10 17 30.03 1017 3 4 0.01 0.25
12:16 pm 12:16 Cloudy with Light Rain 52 11 48 9 88 88 ENE 13 20 30.03 1017 4 6 0.00 0.00
12:23 pm 12:23 Cloudy with Rain 52 11.1 49 9.4 89 89 E 9 15 30.03 1017 2 3 0.02 0.51
12:32 pm 12:32 Cloudy with Light Rain 54 12 50 10 88 88 E 9 15 30.03 1017 3 5 0.00 0.00
12:53 pm 12:53 Cloudy with Mist and Fog 53 11.7 50 10 89 89 E 12 19 30.02 1017 5 8 0.02 0.51
1:18 pm 13:18 Cloudy with Mist and Fog 54 12 52 11 94 94 ENE 13 20 30.00 1016 4 6 0.00 0.00
1:53 pm 13:53 Cloudy with Mist and Fog 54 12.2 51 10.6 90 90 ENE 15 24 29.97 1015 4 6 0.00 0.03
2:53 pm 14:53 Cloudy with Mist and Fog 55 12.8 52 11.1 90 90 ENE 16 26 29.93 1014 4 6 0.00 0.00
3:53 pm 15:53 Cloudy with Mist and Fog 57 13.9 53 11.7 87 87 E 12 19 29.90 1012 4 6 0.00 0.00
4:53 pm 16:53 Cloudy with Mist and Fog 58 14.4 55 12.8 90 90 E 17 28 29.86 1011 4 6 0.00 0.00
5:42 pm 17:42 Cloudy with Mist and Fog 59 15 55 13 88 88 ENE 16 26 29.83 1010 6 10 0.00 0.00
5:53 pm 17:53 Cloudy with Mist and Fog 59 15 56 13.3 90 90 ENE 17 28 29.85 1011 6 10 0.00 0.00
6:53 pm 18:53 Cloudy 60 15.6 56 13.3 86 86 ENE 10 17 29.85 1011 8 13 0.00 0.00
7:03 pm 19:03 Cloudy 61 16 55 13 83 83 ENE 9 15 29.83 1010 8 13 0.00 0.00
7:53 pm 19:53 Cloudy 62 16.7 57 13.9 84 84 E 13 20 29.82 1010 9 14 0.00 0.00
8:53 pm 20:53 Cloudy 61 16.1 58 14.4 90 90 E 13 20 29.82 1010 10 16 0.00 0.00
9:53 pm 21:53 Cloudy 63 17.2 59 15 87 87 ESE 12 19 29.81 1010 10 16 0.00 0.00
10:28 pm 22:28 Cloudy 63 17 59 15 88 88 ESE 13 20 29.77 1008 10 16 0.00 0.00
10:53 pm 22:53 Cloudy with Nearby Thunderstorms 63 17.2 60 15.6 90 90 ESE 15 24 29.80 1009 10 16 0.00 0.00
11:09 pm 23:09 Cloudy with Thunderstorms 62 16.7 60 15.6 93 93 ESE 12 19 29.74 1007 7 11 0.01 0.25
11:19 pm 23:19 Cloudy with Thunderstorms 62 16.7 60 15.6 93 93 ESE 12 19 29.74 1007 10 16 0.02 0.51
11:31 pm 23:31 Cloudy with Nearby Thunderstorms 62 16.7 60 15.6 93 93 ESE 13 20 29.71 1006 10 16 0.02 0.51
11:53 pm 23:53 Cloudy with Nearby Thunderstorms 62 16.7 60 15.6 93 93 SE 14 22 29.77 1008 10 16 0.02 0.51

Powered by AerisWeather